DAL1715 KLAX-KSFO

Flight info

Callsign DAL1715
Flight time 0h 52m
Altitude 34000
Route SUMMR2 STOKD SERFR SERFR4
Aircraft A320/M-SDE3FGHIRWY/LB1

Departure

Time 2026-05-06 19:36
Airport Los Angeles International Airport (KLAX)

Arrival

Time 2026-05-06 20:29
Airport San Francisco International Airport (KSFO)
Time Latitude Longitude Altitude Speed Heading
2026-05-06 18:47 33.94705 -118.40782 95 ft 0 kts 163°
2026-05-06 19:26 33.94706 -118.40782 93 ft 2 kts 163°
2026-05-06 19:26 33.94722 -118.40788 95 ft 4 kts 163°
2026-05-06 19:26 33.94742 -118.40795 93 ft 4 kts 155°
2026-05-06 19:26 33.94758 -118.40813 92 ft 4 kts 91°
2026-05-06 19:27 33.94755 -118.40842 92 ft 2 kts 82°
2026-05-06 19:27 33.94755 -118.40844 92 ft 0 kts 82°
2026-05-06 19:30 33.94756 -118.40840 92 ft 1 kts 82°
2026-05-06 19:31 33.94759 -118.40813 92 ft 5 kts 82°
2026-05-06 19:31 33.94764 -118.40765 93 ft 7 kts 82°
2026-05-06 19:31 33.94784 -118.40620 93 ft 10 kts 60°
2026-05-06 19:32 33.94832 -118.40600 95 ft 7 kts 358°
2026-05-06 19:32 33.94864 -118.40564 96 ft 7 kts 68°
2026-05-06 19:32 33.94875 -118.40478 94 ft 17 kts 84°
2026-05-06 19:32 33.94892 -118.40311 96 ft 21 kts 83°
2026-05-06 19:33 33.94909 -118.40140 94 ft 19 kts 83°
2026-05-06 19:33 33.94923 -118.40004 93 ft 14 kts 83°
2026-05-06 19:33 33.94938 -118.39934 93 ft 7 kts 54°
2026-05-06 19:33 33.94957 -118.39919 93 ft 1 kts 26°
2026-05-06 19:34 33.94959 -118.39917 94 ft 0 kts 26°
2026-05-06 19:34 33.94978 -118.39912 93 ft 5 kts
2026-05-06 19:34 33.95020 -118.39915 93 ft 6 kts 351°
2026-05-06 19:35 33.95042 -118.39948 94 ft 6 kts 275°
2026-05-06 19:35 33.95041 -118.39976 94 ft 0 kts 263°
2026-05-06 19:35 33.95040 -118.39986 95 ft 12 kts 263°
2026-05-06 19:35 33.94999 -118.40376 97 ft 79 kts 263°
2026-05-06 19:36 33.94909 -118.41247 98 ft 130 kts 263°
2026-05-06 19:36 33.94780 -118.42505 249 ft 158 kts 262°
2026-05-06 19:36 33.94636 -118.43812 889 ft 157 kts 261°
2026-05-06 19:36 33.94508 -118.45106 1544 ft 161 kts 261°
2026-05-06 19:37 33.94372 -118.46524 1881 ft 179 kts 262°
2026-05-06 19:37 33.94266 -118.48101 2183 ft 200 kts 267°
2026-05-06 19:37 33.94227 -118.49883 2471 ft 225 kts 269°
2026-05-06 19:37 33.94168 -118.51862 2907 ft 247 kts 267°
2026-05-06 19:38 33.94025 -118.53991 3544 ft 261 kts 267°
2026-05-06 19:38 33.93846 -118.56190 4364 ft 266 kts 266°
2026-05-06 19:38 33.93658 -118.58429 5187 ft 272 kts 267°
2026-05-06 19:38 33.93468 -118.60717 6012 ft 277 kts 267°
2026-05-06 19:39 33.93277 -118.63039 6824 ft 281 kts 267°
2026-05-06 19:39 33.93087 -118.65402 7603 ft 286 kts 267°
2026-05-06 19:39 33.92900 -118.67811 8331 ft 292 kts 267°
2026-05-06 19:39 33.92712 -118.70265 9070 ft 298 kts 268°
2026-05-06 19:40 33.92521 -118.72774 9802 ft 303 kts 268°
2026-05-06 19:40 33.92323 -118.75337 10336 ft 316 kts 268°
2026-05-06 19:40 33.92113 -118.78070 10526 ft 339 kts 267°
2026-05-06 19:40 33.91888 -118.80953 10984 ft 350 kts 267°
2026-05-06 19:41 33.91721 -118.83886 11623 ft 353 kts 274°
2026-05-06 19:41 33.91799 -118.86852 12304 ft 355 kts 275°
2026-05-06 19:41 33.91887 -118.89833 12989 ft 359 kts 275°
2026-05-06 19:41 33.91978 -118.92832 13671 ft 362 kts 275°
2026-05-06 19:42 33.92069 -118.95821 14279 ft 365 kts 276°
2026-05-06 19:42 33.92206 -118.98883 14898 ft 366 kts 281°
2026-05-06 19:42 33.92752 -119.01856 15470 ft 364 kts 292°
2026-05-06 19:42 33.93771 -119.04623 16027 ft 362 kts 304°
2026-05-06 19:43 33.95103 -119.07204 16610 ft 364 kts 306°
2026-05-06 19:43 33.96454 -119.09804 17189 ft 367 kts 306°
2026-05-06 19:43 33.97809 -119.12427 17762 ft 371 kts 306°
2026-05-06 19:43 33.99177 -119.15082 18354 ft 374 kts 306°
2026-05-06 19:44 34.00649 -119.17669 18851 ft 374 kts 314°
2026-05-06 19:44 34.02476 -119.19878 19353 ft 371 kts 325°
2026-05-06 19:44 34.04555 -119.21706 19901 ft 371 kts 329°
2026-05-06 19:44 34.06678 -119.23512 20454 ft 374 kts 329°
2026-05-06 19:45 34.08807 -119.25331 20978 ft 377 kts 329°
2026-05-06 19:45 34.10953 -119.27174 21468 ft 380 kts 329°
2026-05-06 19:45 34.13117 -119.29036 21975 ft 383 kts 329°
2026-05-06 19:45 34.15296 -119.30915 22476 ft 386 kts 329°
2026-05-06 19:46 34.17490 -119.32810 22983 ft 389 kts 329°
2026-05-06 19:46 34.19697 -119.34716 23483 ft 392 kts 329°
2026-05-06 19:46 34.21928 -119.36644 23916 ft 395 kts 329°
2026-05-06 19:46 34.24177 -119.38581 24315 ft 398 kts 329°
2026-05-06 19:47 34.26437 -119.40528 24712 ft 400 kts 329°
2026-05-06 19:47 34.28705 -119.42489 25111 ft 403 kts 329°
2026-05-06 19:47 34.30994 -119.44472 25503 ft 405 kts 329°
2026-05-06 19:47 34.33285 -119.46461 25889 ft 407 kts 329°
2026-05-06 19:48 34.35599 -119.48469 26266 ft 410 kts 329°
2026-05-06 19:48 34.37887 -119.50454 26639 ft 412 kts 329°
2026-05-06 19:48 34.40255 -119.52516 27006 ft 415 kts 327°
2026-05-06 19:48 34.42436 -119.54854 27345 ft 422 kts 319°
2026-05-06 19:49 34.44508 -119.57397 27688 ft 425 kts 319°
2026-05-06 19:49 34.46588 -119.59953 28056 ft 427 kts 319°
2026-05-06 19:49 34.48673 -119.62516 28428 ft 429 kts 319°
2026-05-06 19:49 34.50750 -119.65073 28783 ft 431 kts 319°
2026-05-06 19:50 34.52857 -119.67675 29133 ft 434 kts 319°
2026-05-06 19:50 34.54977 -119.70294 29465 ft 436 kts 319°
2026-05-06 19:50 34.57133 -119.72959 29792 ft 439 kts 319°
2026-05-06 19:50 34.59252 -119.75576 30127 ft 441 kts 319°
2026-05-06 19:51 34.61413 -119.78246 30394 ft 444 kts 319°
2026-05-06 19:51 34.63576 -119.80922 30704 ft 445 kts 319°
2026-05-06 19:51 34.65752 -119.83609 30975 ft 447 kts 319°
2026-05-06 19:51 34.67927 -119.86298 31420 ft 444 kts 319°
2026-05-06 19:52 34.70089 -119.88976 31841 ft 443 kts 319°
2026-05-06 19:52 34.72245 -119.91650 32260 ft 441 kts 319°
2026-05-06 19:52 34.74391 -119.94312 32653 ft 441 kts 319°
2026-05-06 19:52 34.76532 -119.96973 33076 ft 440 kts 319°
2026-05-06 19:53 34.78668 -119.99630 33503 ft 439 kts 319°
2026-05-06 19:53 34.80799 -120.02282 33922 ft 438 kts 319°
2026-05-06 19:53 34.82932 -120.04940 34100 ft 438 kts 319°
2026-05-06 19:53 34.85050 -120.07582 34133 ft 435 kts 319°
2026-05-06 19:54 34.89263 -120.12843 34145 ft 433 kts 319°
2026-05-06 19:54 34.93473 -120.18106 34154 ft 434 kts 319°
2026-05-06 19:55 34.97701 -120.23388 34154 ft 435 kts 319°
2026-05-06 19:55 35.01917 -120.28671 34158 ft 435 kts 319°
2026-05-06 19:56 35.06131 -120.33974 34151 ft 435 kts 319°
2026-05-06 19:56 35.10370 -120.39237 34156 ft 434 kts 320°
2026-05-06 19:57 35.14799 -120.44228 34156 ft 433 kts 323°
2026-05-06 19:57 35.19309 -120.49125 34147 ft 434 kts 322°
2026-05-06 19:58 35.23790 -120.54071 34142 ft 434 kts 322°
2026-05-06 19:58 35.28236 -120.59075 34144 ft 434 kts 321°
2026-05-06 19:59 35.32670 -120.64099 34148 ft 435 kts 321°
2026-05-06 19:59 35.37112 -120.69122 34153 ft 435 kts 322°
2026-05-06 20:00 35.41568 -120.74153 34171 ft 435 kts 322°
2026-05-06 20:00 35.46018 -120.79181 34207 ft 435 kts 322°
2026-05-06 20:01 35.50635 -120.83941 34196 ft 431 kts 327°
2026-05-06 20:01 35.55428 -120.88371 34196 ft 431 kts 327°
2026-05-06 20:02 35.60217 -120.92817 34199 ft 431 kts 327°
2026-05-06 20:02 35.64996 -120.97269 34186 ft 431 kts 327°
2026-05-06 20:03 35.69747 -121.01696 34187 ft 431 kts 327°
2026-05-06 20:03 35.74523 -121.06147 34194 ft 431 kts 327°
2026-05-06 20:04 35.79285 -121.10599 33930 ft 424 kts 327°
2026-05-06 20:04 35.81608 -121.12780 33657 ft 418 kts 327°
2026-05-06 20:04 35.83914 -121.14943 33394 ft 414 kts 327°
2026-05-06 20:05 35.86198 -121.17081 33128 ft 411 kts 327°
2026-05-06 20:05 35.88471 -121.19205 32872 ft 409 kts 327°
2026-05-06 20:05 35.90737 -121.21322 32610 ft 407 kts 327°
2026-05-06 20:05 35.92989 -121.23429 32352 ft 405 kts 326°
2026-05-06 20:06 35.95232 -121.25537 32088 ft 403 kts 326°
2026-05-06 20:06 35.97453 -121.27629 31835 ft 402 kts 326°
2026-05-06 20:06 35.99672 -121.29719 31588 ft 400 kts 326°
2026-05-06 20:06 36.01881 -121.31799 31345 ft 398 kts 326°
2026-05-06 20:07 36.04077 -121.33872 31105 ft 396 kts 326°
2026-05-06 20:07 36.06264 -121.35935 30862 ft 395 kts 327°
2026-05-06 20:07 36.08540 -121.37803 30618 ft 391 kts 331°
2026-05-06 20:07 36.10835 -121.39587 30386 ft 389 kts 331°
2026-05-06 20:08 36.13116 -121.41361 30103 ft 385 kts 331°
2026-05-06 20:08 36.15372 -121.43119 29686 ft 382 kts 330°
2026-05-06 20:08 36.17613 -121.44868 29276 ft 380 kts 330°
2026-05-06 20:08 36.19844 -121.46612 28878 ft 378 kts 330°
2026-05-06 20:09 36.22059 -121.48344 28493 ft 376 kts 330°
2026-05-06 20:09 36.23547 -121.49508 28228 ft 375 kts 330°
2026-05-06 20:09 36.26458 -121.51787 27712 ft 372 kts 330°
2026-05-06 20:09 36.28639 -121.53494 27323 ft 370 kts 330°
2026-05-06 20:10 36.30083 -121.54626 27071 ft 369 kts 330°
2026-05-06 20:10 36.32275 -121.56350 26670 ft 368 kts 330°
2026-05-06 20:10 36.34428 -121.58041 26273 ft 367 kts 330°
2026-05-06 20:10 36.36589 -121.59735 25869 ft 366 kts 330°
2026-05-06 20:11 36.38710 -121.61400 25468 ft 366 kts 330°
2026-05-06 20:11 36.40888 -121.63111 25050 ft 365 kts 330°
2026-05-06 20:11 36.43029 -121.64792 24620 ft 364 kts 330°
2026-05-06 20:11 36.45135 -121.66449 24213 ft 364 kts 330°
2026-05-06 20:12 36.47280 -121.68142 23779 ft 364 kts 330°
2026-05-06 20:12 36.49416 -121.69826 23300 ft 363 kts 330°
2026-05-06 20:12 36.51537 -121.71498 22869 ft 360 kts 330°
2026-05-06 20:12 36.53639 -121.73156 22437 ft 357 kts 330°
2026-05-06 20:13 36.55737 -121.74811 22016 ft 355 kts 330°
2026-05-06 20:13 36.57816 -121.76453 21568 ft 353 kts 330°
2026-05-06 20:13 36.59882 -121.78090 21146 ft 351 kts 330°
2026-05-06 20:13 36.61935 -121.79719 20725 ft 350 kts 330°
2026-05-06 20:14 36.63984 -121.81344 20295 ft 348 kts 330°
2026-05-06 20:14 36.66025 -121.82961 19865 ft 347 kts 330°
2026-05-06 20:14 36.68054 -121.84571 19438 ft 346 kts 330°
2026-05-06 20:14 36.70081 -121.86184 19021 ft 345 kts 330°
2026-05-06 20:15 36.72097 -121.87793 18641 ft 344 kts 330°
2026-05-06 20:15 36.74198 -121.89192 18183 ft 340 kts 340°
2026-05-06 20:15 36.76437 -121.90065 17761 ft 335 kts 350°
2026-05-06 20:15 36.78714 -121.90686 17207 ft 336 kts 350°
2026-05-06 20:16 36.80992 -121.91316 16755 ft 335 kts 349°
2026-05-06 20:16 36.83264 -121.91951 16336 ft 333 kts 349°
2026-05-06 20:16 36.85518 -121.92586 15920 ft 331 kts 349°
2026-05-06 20:16 36.87762 -121.93220 15522 ft 329 kts 349°
2026-05-06 20:17 36.89990 -121.93847 15123 ft 327 kts 349°
2026-05-06 20:17 36.92208 -121.94472 14711 ft 326 kts 349°
2026-05-06 20:17 36.94411 -121.95091 14308 ft 325 kts 349°
2026-05-06 20:17 36.96610 -121.95779 13889 ft 325 kts 347°
2026-05-06 20:18 36.98771 -121.96579 13476 ft 324 kts 345°
2026-05-06 20:18 37.00913 -121.97432 13070 ft 322 kts 344°
2026-05-06 20:18 37.03034 -121.98298 12671 ft 320 kts 344°
2026-05-06 20:18 37.05150 -121.99161 12273 ft 318 kts 344°
2026-05-06 20:19 37.07248 -122.00006 11878 ft 317 kts 344°
2026-05-06 20:19 37.09351 -122.00839 11480 ft 316 kts 344°
2026-05-06 20:19 37.11435 -122.01656 11085 ft 314 kts 344°
2026-05-06 20:19 37.13515 -122.02468 10693 ft 313 kts 344°
2026-05-06 20:20 37.15563 -122.03266 10304 ft 311 kts 344°
2026-05-06 20:20 37.17625 -122.04071 9917 ft 310 kts 344°
2026-05-06 20:20 37.19649 -122.04863 9757 ft 299 kts 344°
2026-05-06 20:20 37.21586 -122.05623 9561 ft 282 kts 343°
2026-05-06 20:21 37.23422 -122.06348 9097 ft 275 kts 343°
2026-05-06 20:21 37.25234 -122.07059 8556 ft 271 kts 343°
2026-05-06 20:21 37.27017 -122.07757 8110 ft 265 kts 344°
2026-05-06 20:21 37.28751 -122.08438 7754 ft 260 kts 343°
2026-05-06 20:22 37.30479 -122.09120 7404 ft 261 kts 343°
2026-05-06 20:22 37.32211 -122.09802 7064 ft 259 kts 343°
2026-05-06 20:22 37.33930 -122.10478 6722 ft 259 kts 344°
2026-05-06 20:22 37.35650 -122.11158 6372 ft 258 kts 344°
2026-05-06 20:23 37.37357 -122.11830 6023 ft 257 kts 344°
2026-05-06 20:23 37.39081 -122.12509 5677 ft 263 kts 343°
2026-05-06 20:23 37.40827 -122.13200 5350 ft 263 kts 343°
2026-05-06 20:23 37.42567 -122.13885 5013 ft 262 kts 343°
2026-05-06 20:24 37.44299 -122.14562 4656 ft 259 kts 343°
2026-05-06 20:24 37.46023 -122.15234 4308 ft 258 kts 344°
2026-05-06 20:24 37.47701 -122.15891 3957 ft 248 kts 344°
2026-05-06 20:24 37.49323 -122.16534 3603 ft 239 kts 343°
2026-05-06 20:25 37.50878 -122.17147 3260 ft 230 kts 343°
2026-05-06 20:25 37.52328 -122.17855 3025 ft 217 kts 329°
2026-05-06 20:25 37.53573 -122.18941 3010 ft 219 kts 323°
2026-05-06 20:25 37.54750 -122.20167 2793 ft 221 kts 308°
2026-05-06 20:26 37.55441 -122.21885 2515 ft 223 kts 293°
2026-05-06 20:26 37.56181 -122.23603 2204 ft 223 kts 300°
2026-05-06 20:26 37.56949 -122.25280 1888 ft 218 kts 298°
2026-05-06 20:26 37.57639 -122.26883 1616 ft 200 kts 297°
2026-05-06 20:27 37.58251 -122.28334 1375 ft 179 kts 297°
2026-05-06 20:27 37.58807 -122.29655 1119 ft 164 kts 297°
2026-05-06 20:27 37.59321 -122.30878 918 ft 151 kts 296°
2026-05-06 20:27 37.59806 -122.32010 688 ft 140 kts 296°
2026-05-06 20:28 37.60248 -122.33070 540 ft 138 kts 296°
2026-05-06 20:28 37.60696 -122.34146 351 ft 135 kts 297°
2026-05-06 20:28 37.61131 -122.35177 194 ft 135 kts 296°
2026-05-06 20:28 37.61570 -122.36223 35 ft 133 kts 296°
2026-05-06 20:29 37.61946 -122.37124 22 ft 95 kts 297°
2026-05-06 20:29 37.62170 -122.37666 22 ft 41 kts 297°
2026-05-06 20:29 37.62227 -122.37868 22 ft 21 kts 281°
2026-05-06 20:29 37.62228 -122.38009 22 ft 12 kts 268°
2026-05-06 20:30 37.62226 -122.38090 22 ft 8 kts 268°
2026-05-06 20:30 37.62199 -122.38186 22 ft 9 kts 220°
2026-05-06 20:30 37.62138 -122.38229 22 ft 10 kts 206°
2026-05-06 20:31 37.62092 -122.38269 24 ft 9 kts 236°
2026-05-06 20:31 37.62092 -122.38321 22 ft 6 kts 293°
2026-05-06 20:31 37.62088 -122.38384 23 ft 8 kts 228°
2026-05-06 20:31 37.62068 -122.38437 24 ft 6 kts 278°
2026-05-06 20:32 37.62088 -122.38499 22 ft 8 kts 285°
2026-05-06 20:32 37.62082 -122.38539 25 ft 5 kts 243°
2026-05-06 20:32 37.62054 -122.38572 22 ft 4 kts 213°
2026-05-06 20:32 37.62041 -122.38595 22 ft 3 kts 246°
2026-05-06 20:33 37.62043 -122.38623 22 ft 2 kts 281°
2026-05-06 20:33 37.62050 -122.38641 22 ft 2 kts 295°
2026-05-06 20:33 37.62054 -122.38651 22 ft 1 kts 297°
2026-05-06 20:33 37.62055 -122.38655 23 ft 0 kts 297°